Regional Weather Roundup
Issued by NWS Albany, NY

Home | Current Version | Previous Version | Text Only | Print | Product List | Glossary On
Versions: 1 2 3 4 5 6 7 8 9 10 11 12 13 14 15 16 17 18 19 20 21 22 23 24 25 26 27 28
000
ASUS41 KALY 151310
RWRALY

NEW YORK STATE HOURLY WEATHER ROUNDUP
NATIONAL WEATHER SERVICE ALBANY NY
900 AM EDT TUE APR 15 2014

NOTE: "FAIR" INDICATES FEW OR NO CLOUDS BELOW 12,000 FEET WITH NO
SIGNIFICANT WEATHER AND/OR NO OBSTRUCTIONS TO VISIBILITY.

NYZ032-033-038>043-046>054-057>066-NYZ062>081-151400-
EAST


CITY           SKY/WX    TMP DP  RH WIND       PRES   REMARKS
ALBANY         LGT RAIN  62  58  86 S18G25    29.60F
GLENS FALLS    LGT RAIN  64  57  78 S20G29    29.58F
POUGHKEEPSIE   CLOUDY    64  59  83 VRB5      29.66F
NEWBURGH       CLOUDY    61  59  94 S9        29.68F
MONTGOMERY     LGT RAIN  63  60  90 S13       29.63F
WHITE PLAINS   FOG       58  56  93 S15G29    29.71F VSB 3/4
ISLIP          LGT RAIN  57  54  89 S18G30    29.75F FOG
NEW YORK CITY  CLOUDY    60  55  83 S17G23    29.71F
CENTRAL PARK   LGT RAIN  60  57  89 S13G22    29.73F FOG
$$

NYZ005>009-017-018-044>046-055-056-151400-
CENTRAL


CITY           SKY/WX    TMP DP  RH WIND       PRES   REMARKS
FULTON         LGT RAIN  37  35  92 W20G26    29.56R FOG     WCI  27
SYRACUSE       RAIN      41  40  96 W17G26    29.56R FOG
ROME           LGT RAIN  64  55  72 S10       29.49F
ELMIRA         LGT RAIN  63  56  78 S5        29.48F
BINGHAMTON     LGT RAIN  59  58  96 S13       29.52F FOG
MONTICELLO     CLOUDY    59  59 100 S16       29.64F
$$

NYZ026>034-041>043-151400-
NORTH


CITY           SKY/WX    TMP DP  RH WIND       PRES   REMARKS
WATERTOWN      RAIN      40  37  89 SW14      29.54R FOG     WCI  32
FORT DRUM      NOT AVBL
MASSENA        LGT RAIN  48  48 100 W10       29.44R FOG
SARANAC LAKE   CLOUDY    59  53  80 S21G31    29.47F
PLATTSBURGH    CLOUDY    58  54  86 SE10      29.49F
$$

NYZ001>004-010>016-019>021-151400-
WEST


CITY           SKY/WX    TMP DP  RH WIND       PRES   REMARKS
NIAGARA FALLS  LGT SNOW  32  30  92 NW12      29.68S VSB 3/4 WCI  23
BUFFALO        LGT SNOW  32  31  96 W10       29.68R VSB 3/4 WCI  24
DUNKIRK        SNOW      32  31  96 W10       29.71R VSB 1/2 WCI  24
JAMESTOWN      CLOUDY    30  28  93 CALM      29.65R
WELLSVILLE     RAIN      35  32  88 NW9       29.59R WCI  28
ROCHESTER      LGT RAIN  36  34  92 W16       29.63R WCI  26
PENN YAN       RAIN      38  34  85 NW12G22   29.55R FOG     WCI  30
$$

             KEY
       WCI = WIND CHILL INDEX
       VSB = VISIBILITY
       HX  = HEAT INDEX
$$



USA.gov is the U.S. government's official web portal to all federal, state and local government web resources and services.